Terminal Aerodrome Forecast
Issued by NWS Tiyan, Guam

Home | Current Version | Previous Version | Text Only | Print | Product List | Glossary On
Versions: 1 2 3 4 5 6 7 8 9 10 11 12 13 14 15 16 17 18 19 20 21 22 23 24 25 26 27 28 29 30 31 32 33 34 35 36
000
FTPQ31 PGUM 240100 AAA
TAFPQ
TAF AMD
PGUM 240129Z 2401/2506 31010KT P6SM VCSH FEW018 SCT060 BKN120
      TEMPO 2401/2404 34011G21KT -SHRA SCT009 BKN016=

USA.gov is the U.S. government's official web portal to all federal, state and local government web resources and services.